Ketchikan, AK

10:20 PM AKDT on September 22, 2018 (GMT -0800)
Ketchikan International

Weather History for PAKT - June, 2018

Change the Weather History Date:

Tuesday, June 5, 2018

  Actual Average Record
Temperature  
Mean Temperature 53 °F -  
Max Temperature 62 °F 60 °F 79 °F (1958)
Min Temperature 46 °F 45 °F 39 °F (1955)
Degree Days  
Heating Degree Days 12    
Growing Degree Days 3 (Base 50)    
Moisture  
Dew Point 42 °F    
Average Humidity 73    
Maximum Humidity 93    
Minimum Humidity 39    
Precipitation  
Precipitation 0.08 in - - ()
Sea Level Pressure  
Sea Level Pressure 29.74 in    
Wind  
Wind Speed 6 mph (SE)    
Max Wind Speed 14 mph    
Max Gust Speed 20 mph    
Visibility 10 miles    
Events Rain    
Averages and records for this station are not official NWS values.
T = Trace of Precipitation, MM = Missing Value Source: NWS Daily Summary

Daily Weather History Graph

Daily Weather History Graph

Search for Another Location

Airport or City:

Astronomy

Jun. 05, 2018 Rise Set
Actual Time 4:09 AM AKDT 9:22 PM AKDT
Civil Twilight 3:12 AM AKDT 10:19 PM AKDT
Nautical Twilight 1:02 AM AKDT 12:13 AM AKDT
Astronomical Twilight Sun does not set Sun does not set
Moon 1:22 AM AKDT (6/5) 11:03 AM AKDT (6/5)
Length of Visible Light 19h 06m
Length of Day
17h 12m
Waning Gibbous, 59% of the Moon is Illuminated
Jun 5
Waning Gibbous
Jun 6
Last Quarter
Jun 13
New
Jun 20
First Quarter
Jun 27
Full

Hourly Weather History & Observations

Time (AKDT) Temp. Windchill Dew Point Humidity Pressure Visibility Wind Dir Wind Speed Gust Speed Precip Events Conditions
12:43 AM 46.9 °F - 44.1 °F 90% 29.90 in 7.0 mi South 5.8 mph - 0.05 in Rain Light Rain
12:50 AM 46.4 °F 44.3 °F 44.6 °F 93% 29.90 in 10.0 mi SSE 4.6 mph - 0.05 in Rain Light Rain
12:53 AM 46.9 °F - 44.1 °F 90% 29.90 in 8.0 mi South 5.8 mph - 0.06 in Rain Light Rain
1:05 AM 46.4 °F 43.5 °F 44.6 °F 93% 29.89 in 10.0 mi South 5.8 mph - N/A Rain Light Rain
1:53 AM 46.9 °F - 43.0 °F 86% 29.88 in 10.0 mi South 6.9 mph - 0.00 in   Mostly Cloudy
2:53 AM 46.9 °F - 43.0 °F 86% 29.88 in 10.0 mi South 4.6 mph - N/A   Overcast
3:53 AM 46.9 °F - 42.1 °F 83% 29.86 in 10.0 mi Variable 3.5 mph - N/A   Overcast
4:53 AM 46.0 °F - 43.0 °F 89% 29.85 in 10.0 mi Calm Calm - N/A   Overcast
5:53 AM 46.9 °F - 44.1 °F 90% 29.83 in 10.0 mi Calm Calm - 0.00 in Rain Light Rain
6:08 AM 46.4 °F - 44.6 °F 93% 29.83 in 10.0 mi Calm Calm - N/A   Overcast
6:53 AM 48.2 °F - 44.6 °F 87% 29.81 in 10.0 mi NNW 3.5 mph - N/A   Overcast
7:53 AM 50.0 °F - 43.0 °F 77% 29.79 in 10.0 mi NW 5.8 mph - N/A   Overcast
8:53 AM 51.8 °F - 42.8 °F 71% 29.77 in 10.0 mi North 3.5 mph - N/A   Overcast
9:53 AM 53.6 °F - 39.2 °F 58% 29.75 in 10.0 mi North 4.6 mph - N/A   Scattered Clouds
10:53 AM 59.0 °F - 37.4 °F 45% 29.72 in 10.0 mi SE 9.2 mph 19.6 mph N/A   Mostly Cloudy
11:53 AM 57.2 °F - 37.4 °F 48% 29.70 in 10.0 mi SE 10.4 mph - N/A   Mostly Cloudy
12:53 PM 60.8 °F - 37.4 °F 42% 29.68 in 10.0 mi SSE 11.5 mph - N/A   Mostly Cloudy
1:53 PM 60.8 °F - 37.4 °F 42% 29.66 in 10.0 mi East 13.8 mph - N/A   Mostly Cloudy
2:53 PM 60.8 °F - 35.6 °F 39% 29.63 in 10.0 mi ENE 10.4 mph - N/A   Overcast
3:53 PM 60.8 °F - 37.4 °F 42% 29.62 in 10.0 mi SE 12.7 mph - N/A   Overcast
4:53 PM 59.0 °F - 37.4 °F 45% 29.60 in 10.0 mi SSE 9.2 mph - N/A   Overcast
5:53 PM 57.2 °F - 39.2 °F 51% 29.59 in 10.0 mi Variable 3.5 mph - N/A   Overcast
6:53 PM 51.8 °F - 46.4 °F 82% 29.61 in 7.0 mi ESE 8.1 mph 18.4 mph N/A Rain Light Rain
7:53 PM 51.8 °F - 46.4 °F 82% 29.61 in 10.0 mi South 5.8 mph - N/A Rain Light Rain
8:53 PM 51.1 °F - 46.0 °F 83% 29.61 in 10.0 mi SE 4.6 mph - 0.01 in Rain Light Rain
9:53 PM 50.0 °F - 46.0 °F 86% 29.61 in 10.0 mi SE 4.6 mph - 0.00 in   Overcast
10:53 PM 50.0 °F - 46.0 °F 86% 29.62 in 10.0 mi SSE 11.5 mph - 0.00 in Rain Light Rain
11:53 PM 50.0 °F - 45.0 °F 83% 29.60 in 10.0 mi SE 10.4 mph - 0.01 in Rain Light Rain